This is the latest recevied weather packets stored in our database for station/object SV4JYD-13. If no packets are shown the sender has not sent any weather packets the latest 10 day(s).
| Time | Temp. | Humidity | Pressure | Rain* | Wind** | Luminosity | Snow |
|---|---|---|---|---|---|---|---|
| 1777235161 | 16.11° C | 78% | 1015 hPa | 0 mm | - | - | - |
| 1777234261 | 16.11° C | 79% | 1015 hPa | 0 mm | - | - | - |
| 1777233360 | 16.67° C | 75% | 1016 hPa | 0 mm | - | - | - |
| 1777232460 | 17.78° C | 70% | 1016 hPa | 0 mm | - | - | - |
| 1777231560 | 17.78° C | 70% | 1015 hPa | 0 mm | - | - | - |
| 1777230660 | 17.78° C | 69% | 1015 hPa | 0 mm | - | - | - |
| 1777229760 | 18.33° C | 68% | 1015 hPa | 0 mm | - | - | - |
| 1777228859 | 18.89° C | 65% | 1015 hPa | 0 mm | - | - | - |
| 1777227959 | 18.89° C | 64% | 1014 hPa | 0 mm | - | - | - |
| 1777227059 | 19.44° C | 62% | 1014 hPa | 0 mm | - | - | - |
| 1777226158 | 21.11° C | 59% | 1015 hPa | 0 mm | - | - | - |
| 1777225258 | 21.11° C | 65% | 1015 hPa | 0 mm | - | - | - |
| 1777224358 | 21.11° C | 78% | 1013 hPa | 0 mm | - | - | - |
| 1777223458 | 21.11° C | 10% | - | 0 mm | - | - | - |
| 1777222557 | 21.67° C | 10% | - | 0 mm | - | - | - |
| 1777221657 | 22.78° C | 66% | 1014 hPa | 0 mm | - | - | - |
| 1777220757 | 22.22° C | 84% | 1013 hPa | 0 mm | - | - | - |
| 1777219857 | 22.78° C | 80% | 1013 hPa | 0 mm | - | - | - |
| 1777218956 | 23.33° C | 74% | 1014 hPa | 0 mm | - | - | - |
| 1777218056 | 23.33° C | 66% | 1014 hPa | 0 mm | - | - | - |
| 1777217156 | 23.33° C | 56% | 1013 hPa | 0 mm | - | - | - |
| 1777216256 | 23.89° C | 56% | 1014 hPa | 0 mm | - | - | - |
| 1777215355 | 23.89° C | 43% | 1014 hPa | 0 mm | - | - | - |
| 1777214455 | 23.89° C | 42% | 1014 hPa | 0 mm | - | - | - |
| 1777213555 | 23.89° C | 40% | 1013 hPa | 0 mm | - | - | - |
* Rain latest hour (hover to see other rain measurements)
** Current wind speed in m/s (hover to see current wind gust speed)